Temperature
14 12 12 12 13 14 14 13 13 13 14 14 12 12 14 15 14 14 15 16 17 18 18 17 17 17 16 16 16 15 15 14 13 12 11 11 10 10 9 9 9 9 9 8
12 12 13 14 13 13 13 13 12 12 13 13 12 12 13 12 13 15 15 16 17 18 17 17 17 16 16 16 15 15 14 14 13 12 11 11 10 10 10 9 9 9 9 8
12 13 13 13 13 12 12 12 12 12 13 13 12 11 12 12 13 14 15 16 17 17 17 17 17 16 16 15 15 15 14 14 13 12 11 11 10 10 10 9 9 9 9 8
12 13 13 13 12 12 12 12 12 13 12 11 12 11 12 12 12 12 13 14 15 16 17 17 16 16 16 15 15 14 14 13 13 12 11 11 11 10 10 10 9 9 9 8
11 12 12 12 13 12 12 13 12 12 11 10 11 11 12 12 12 13 12 14 15 16 16 16 16 16 15 15 14 14 13 13 12 12 11 11 11 10 10 10 9 9 9 8
12 12 12 13 13 13 13 12 11 9 10 10 10 10 11 12 13 13 13 14 14 15 15 15 15 15 14 14 14 13 13 13 12 12 11 11 11 10 10 10 9 9 9 8
11 12 12 13 12 12 12 12 11 11 10 10 10 10 11 13 13 13 13 14 14 14 14 14 14 14 14 14 14 13 13 13 12 12 11 11 11 10 10 10 9 9 9 8
10 11 12 12 12 11 11 12 11 11 10 10 10 9 11 12 12 14 14 14 14 13 13 14 14 14 14 14 14 13 13 13 12 12 11 11 10 10 10 10 9 9 8 8
11 11 12 12 12 12 11 11 12 10 10 10 10 10 10 13 13 12 12 12 12 13 13 13 14 14 14 14 14 13 13 12 12 12 11 11 10 10 10 9 9 8 8 8
11 11 12 12 12 12 11 10 9 10 10 10 10 10 12 14 15 13 12 11 12 12 13 13 13 14 14 14 13 13 12 12 12 11 11 11 10 10 9 9 8 8 8 7
11 11 11 11 11 11 10 10 10 9 9 9 10 11 12 13 13 12 11 13 13 13 13 13 13 14 13 13 13 12 12 12 11 11 11 10 10 9 9 8 8 8 7 7
10 10 10 10 11 11 11 10 10 10 9 8 9 11 13 12 12 11 12 13 14 14 14 14 13 13 13 13 12 12 12 12 11 11 10 10 9 9 9 8 8 7 7 6
11 10 10 10 10 10 10 10 10 10 9 7 8 11 12 12 13 13 14 14 15 14 14 13 13 13 13 13 13 12 12 11 11 10 10 9 9 9 8 8 7 7 6 6
12 9 10 11 10 9 9 10 10 10 10 8 8 11 13 13 13 13 15 15 15 15 14 14 14 14 14 13 13 12 12 11 10 10 10 9 9 8 8 7 7 6 6 5
11 9 9 10 11 10 10 10 10 10 10 10 10 10 13 13 13 14 15 15 15 15 15 15 15 14 14 13 13 12 12 11 10 10 9 9 8 8 7 7 6 6 5 5
9 10 9 10 10 10 10 10 10 10 11 10 10 10 12 13 14 13 14 15 15 16 16 16 16 15 14 14 13 12 11 11 10 9 9 8 8 7 7 6 6 5 5 4
8 9 9 9 10 10 9 10 10 10 9 10 11 12 12 12 11 12 14 15 16 17 17 16 16 16 15 14 13 12 11 10 10 9 8 8 7 7 6 6 5 5 4 4
9 9 8 8 9 9 11 11 11 11 10 10 10 11 12 12 14 15 15 15 16 16 16 16 16 15 14 14 12 11 10 10 9 8 8 7 7 6 6 5 5 4 4 4
8 9 7 7 8 8 9 10 10 10 10 10 11 11 11 12 12 12 15 15 16 16 16 15 15 14 14 13 12 11 10 9 8 8 7 7 6 6 5 5 5 4 3 3
7 8 7 6 8 8 10 11 10 11 11 11 10 11 10 9 10 11 15 15 15 15 15 14 14 14 13 12 11 10 9 8 8 7 7 6 6 5 5 4 4 3 3 2
7 6 7 6 7 8 9 10 10 11 11 12 12 11 10 9 12 14 14 14 14 14 14 13 13 12 12 11 10 9 8 8 7 7 6 6 5 5 4 4 3 3 2 2
8 7 6 6 7 8 9 8 10 11 13 14 13 13 12 13 13 13 13 13 13 13 12 12 12 11 10 10 9 8 8 7 6 6 5 5 5 4 4 3 2 2 2 1
8 9 8 8 9 9 10 11 13 14 14 14 15 15 14 14 13 13 13 13 12 12 11 11 10 10 9 8 8 7 7 6 6 5 5 4 4 3 3 2 2 2 1 1
6 7 7 7 7 8 10 12 13 14 15 15 15 15 14 14 14 13 12 12 11 11 10 10 9 9 8 7 7 6 6 5 5 5 4 4 3 3 2 2 1 1 1 0
6 6 6 7 7 8 10 12 14 14 14 14 14 14 14 13 13 12 12 11 10 10 9 9 8 8 7 6 6 5 5 5 4 4 4 3 3 2 2 1 1 0 -0 -1
5 6 8 8 8 8 10 14 14 13 13 14 13 13 13 12 12 12 11 10 10 9 8 8 7 7 6 6 5 5 4 4 4 3 3 2 2 1 1 1 0 -0 -1 -1
Wind_Speed
5 5 9 12 11 8 6 6 8 9 5 4 10 15 18 12 9 12 12 11 12 12 7 5 4 4 6 7 9 12 13 12 11 8 7 6 5 4 3 4 6 6 6 7
4 10 11 8 7 6 6 6 8 9 5 5 9 14 15 12 11 13 13 14 14 11 7 7 6 5 6 8 10 11 12 13 12 9 6 4 4 3 3 3 4 5 5 5
14 7 8 8 7 7 7 8 9 9 7 5 6 10 10 9 7 9 10 11 11 13 13 10 9 7 7 8 10 11 11 12 11 10 7 6 5 4 3 3 2 3 5 6
10 7 7 8 9 11 9 9 9 7 5 6 2 7 9 9 10 10 11 10 11 11 11 10 10 8 8 7 8 9 10 10 10 11 10 9 6 5 4 4 3 3 5 6
10 9 10 10 11 12 9 5 5 4 5 5 3 6 10 7 10 13 11 11 11 11 12 12 11 9 7 7 8 8 9 9 9 10 11 10 6 5 4 4 5 4 4 5
7 6 9 11 7 9 7 6 5 4 3 5 7 8 9 7 10 9 7 7 9 10 10 9 8 8 7 7 7 8 10 9 9 9 9 10 10 9 8 6 5 4 2 2
6 5 5 5 6 5 6 6 1 3 2 7 4 6 11 14 10 9 11 9 8 10 11 11 11 11 10 10 9 9 11 9 9 9 9 9 10 10 10 8 6 5 3 2
11 8 11 9 9 9 9 11 9 7 6 5 3 8 10 13 10 9 9 7 7 10 11 12 13 12 12 11 11 10 11 10 9 9 9 8 9 7 6 6 6 6 4 3
13 10 5 9 7 13 9 8 8 6 2 4 7 8 11 9 8 6 5 4 7 10 11 11 11 11 11 12 11 11 11 10 10 9 9 8 8 7 7 7 5 4 4 3
10 7 5 5 5 3 9 10 6 6 6 6 7 6 6 10 9 7 6 6 7 8 10 10 10 11 10 10 9 9 10 10 9 9 9 8 8 8 8 7 7 6 5 4
8 8 4 5 10 12 7 7 7 7 6 6 5 7 8 10 8 8 9 7 8 10 11 11 10 10 9 9 9 9 9 9 9 9 8 9 8 7 7 6 6 6 5 4
9 7 6 8 6 8 9 11 10 8 7 6 5 8 8 7 8 8 9 6 6 9 9 9 9 9 10 10 10 11 10 10 10 9 9 9 8 8 7 6 6 6 5 4
11 8 5 1 1 4 6 7 10 7 6 7 7 8 5 4 6 5 6 5 5 7 8 8 9 11 12 12 12 12 11 11 10 10 10 9 8 8 8 7 6 6 5 4
12 7 10 14 8 9 8 8 10 9 8 9 11 10 9 9 8 7 6 5 5 7 9 10 11 12 12 12 12 12 11 11 11 10 10 10 9 9 8 7 6 6 5 4
9 9 8 7 7 9 9 13 15 15 14 13 11 13 14 12 10 9 6 5 5 7 9 12 13 12 12 12 12 12 12 11 12 12 11 10 9 8 7 6 6 5 5 4
9 9 9 7 8 8 8 11 16 16 14 13 10 11 12 11 8 8 9 8 9 10 11 11 12 12 14 15 14 13 13 12 12 12 11 9 9 8 7 6 6 5 4 4
9 9 8 7 5 5 11 13 13 10 9 11 16 17 10 9 11 12 11 10 11 11 10 11 12 14 14 14 14 15 13 12 12 11 10 10 9 8 7 6 6 5 4 4
10 10 6 5 6 10 10 9 13 13 12 14 11 10 12 14 12 9 9 10 11 10 9 9 9 10 10 10 11 11 11 12 12 11 10 9 9 8 7 6 6 5 4 4
7 9 6 6 7 8 7 6 10 12 13 13 15 13 10 4 1 6 9 9 10 9 7 6 7 7 8 10 12 12 12 11 11 11 10 10 9 8 7 6 6 4 4 4
5 6 7 6 7 10 9 7 7 7 9 10 13 15 10 7 3 7 4 5 5 4 3 4 5 7 9 10 12 13 12 12 12 11 10 9 9 8 8 7 5 3 4 5
8 6 8 7 7 8 8 4 10 8 10 6 10 11 10 11 9 3 2 3 3 4 4 6 7 7 8 10 12 12 11 11 9 8 8 7 7 7 6 5 3 3 4 4
12 10 9 8 7 10 7 10 12 10 5 4 6 8 9 9 5 3 3 4 6 6 6 7 8 7 7 9 11 11 9 7 8 8 7 6 6 5 4 4 3 3 4 4
11 12 9 11 10 6 10 11 9 6 7 6 6 7 8 8 7 6 5 6 5 6 6 6 8 9 7 7 9 10 8 8 8 7 6 5 4 4 4 4 4 3 4 4
5 4 7 6 8 7 8 7 6 7 7 6 6 7 9 8 8 8 7 6 6 6 6 7 9 9 7 6 7 8 8 8 8 7 5 4 4 3 3 3 4 4 5 5
8 8 7 8 5 4 7 10 10 8 6 5 5 7 8 9 8 8 8 8 7 6 6 7 8 9 8 7 7 7 7 8 7 5 4 4 4 4 4 4 5 6 6 7
7 9 11 9 9 9 9 10 10 9 9 9 8 6 6 8 9 8 8 7 7 8 7 7 8 8 8 7 7 6 6 7 7 5 4 3 3 3 4 4 5 9 11 15
Wind_Direction
150 144 194 201 198 191 184 204 246 257 258 256 259 267 275 271 251 247 244 234 229 231 231 208 195 173 155 159 166 172 172 169 165 165 163 158 161 155 149 156 163 166 168 170
130 221 211 191 190 191 199 233 261 281 272 232 270 274 271 261 245 237 234 229 223 218 206 199 188 174 167 165 167 168 170 169 170 169 158 145 140 136 136 132 132 142 150 156
195 211 180 172 177 191 212 215 239 259 307 305 299 294 280 279 255 253 238 228 216 207 202 193 186 182 170 170 170 170 168 165 161 148 133 114 98 89 100 112 114 106 131 136
217 214 164 179 196 184 232 220 223 249 278 285 317 294 285 277 286 265 249 229 217 206 195 187 182 180 179 176 163 158 157 156 153 151 154 152 153 156 166 152 136 110 112 118
218 188 182 199 202 181 210 202 199 225 222 273 269 257 279 291 276 269 254 233 220 203 191 187 183 176 166 158 154 150 147 148 151 154 157 153 145 139 130 125 124 112 95 107
216 199 194 204 195 176 147 92 72 54 92 267 228 217 276 253 242 267 272 240 217 196 186 177 162 149 147 147 147 147 149 148 150 150 152 154 150 145 142 141 139 130 116 103
215 225 208 163 134 131 136 124 4 303 267 249 222 219 252 252 250 253 269 260 215 189 177 170 167 168 165 163 160 156 153 152 153 151 153 156 154 155 157 157 156 151 147 148
185 224 201 185 168 166 179 166 180 208 230 272 229 235 255 263 269 266 264 252 197 185 183 182 181 176 173 170 167 163 160 156 157 155 154 151 151 152 154 155 156 161 164 165
185 218 210 192 170 152 160 197 180 155 206 265 264 273 296 284 279 277 275 228 200 192 188 186 180 177 175 174 175 171 164 157 160 157 149 151 153 152 151 149 146 151 156 156
153 194 220 168 118 156 159 152 131 160 198 242 267 262 250 278 284 292 273 244 218 194 188 184 183 183 180 176 169 166 165 163 160 157 156 157 156 153 149 147 153 157 158 154
145 159 155 150 182 178 143 158 162 167 178 184 246 261 231 243 269 283 276 251 215 198 193 190 186 181 173 166 166 169 167 159 160 162 157 152 154 150 148 154 160 160 158 160
156 149 187 219 222 188 177 178 161 176 212 198 208 263 265 253 269 271 275 259 219 202 194 187 179 172 173 176 176 176 174 171 169 163 158 156 153 151 154 161 163 160 163 168
155 154 158 208 222 177 198 194 189 171 161 182 197 255 286 296 289 274 268 258 220 199 188 180 179 184 188 187 184 182 180 176 166 160 158 156 158 161 166 167 164 164 167 173
158 159 188 200 195 174 188 197 187 174 199 213 219 239 276 286 287 287 277 256 222 206 194 190 194 196 194 190 187 184 182 173 166 163 163 166 171 171 170 166 166 170 173 181
157 186 198 203 181 168 187 193 191 200 208 213 224 225 243 250 252 259 260 242 218 215 207 203 203 200 194 190 188 184 179 173 168 167 171 175 169 164 161 164 170 173 181 194
160 180 184 212 199 189 211 210 201 210 217 226 240 248 243 249 247 253 250 237 234 230 220 213 206 199 196 194 190 184 180 175 169 171 174 165 160 162 167 171 173 178 193 206
165 154 164 210 191 179 238 212 199 206 207 199 226 239 241 244 241 239 240 233 231 235 226 214 208 204 201 195 187 185 178 167 168 170 166 164 164 168 173 173 176 191 203 209
162 161 158 162 151 220 242 200 196 207 221 210 217 229 228 233 240 239 228 225 233 232 227 220 208 202 193 180 173 166 160 164 167 166 166 166 166 171 172 175 190 201 205 218
162 155 150 162 202 253 282 225 186 199 238 219 220 235 239 224 302 279 236 218 225 226 219 211 195 182 168 165 160 154 158 162 164 169 171 172 170 170 175 187 201 205 210 229
152 149 152 161 189 225 234 215 172 153 252 233 210 225 222 149 204 259 241 203 212 201 179 164 146 142 150 154 150 152 159 164 173 175 172 168 168 172 182 194 202 205 213 233
160 163 177 176 206 246 239 179 130 172 234 228 200 207 188 187 211 221 128 133 141 133 128 130 131 138 147 147 147 152 159 173 171 158 153 158 167 173 181 187 195 208 225 243
173 175 184 173 201 235 204 150 178 208 204 186 184 188 186 200 195 165 150 140 133 124 122 126 126 124 132 143 146 151 162 156 141 142 148 158 164 170 173 182 207 217 226 248
191 188 182 193 212 207 178 192 208 180 185 190 182 183 173 177 187 177 166 155 144 138 133 127 128 124 126 138 144 149 149 140 138 140 150 158 163 172 179 191 213 229 231 246
230 169 158 198 229 216 209 215 216 199 201 194 181 171 168 175 177 171 163 158 151 143 139 135 134 134 135 135 133 140 141 140 139 146 157 163 170 189 203 210 215 225 236 247
187 168 177 209 227 222 239 221 214 205 199 185 172 175 178 169 173 173 169 167 159 148 143 145 146 144 142 136 131 136 141 139 141 151 164 175 188 201 220 231 231 236 235 238
185 175 183 209 200 189 215 213 195 189 200 193 176 171 172 173 171 164 164 159 153 149 144 143 142 141 141 139 138 142 144 144 147 161 180 192 202 217 229 250 272 261 258 268
Height
1495 1501 1504 1503 1503 1505 1509 1513 1514 1509 1502 1503 1503 1497 1488 1483 1483 1481 1480 1480 1481 1483 1486 1488 1490 1492 1494 1497 1500 1503 1507 1511 1516 1520 1524 1527 1530 1533 1536 1538 1539 1540 1541 1542
1498 1498 1494 1496 1500 1504 1507 1511 1512 1506 1501 1502 1500 1494 1483 1478 1475 1472 1471 1471 1473 1476 1480 1482 1485 1488 1490 1493 1496 1499 1503 1507 1512 1516 1520 1524 1528 1531 1533 1535 1536 1537 1538 1539
1491 1489 1490 1495 1499 1504 1506 1510 1508 1507 1501 1499 1500 1493 1482 1471 1468 1465 1464 1464 1466 1469 1472 1476 1480 1483 1486 1490 1493 1496 1500 1504 1509 1513 1518 1522 1525 1528 1530 1531 1533 1534 1535 1535
1487 1486 1488 1492 1496 1499 1504 1500 1502 1503 1508 1509 1503 1505 1484 1473 1467 1461 1458 1458 1458 1461 1466 1471 1475 1479 1482 1486 1490 1494 1498 1502 1506 1510 1514 1518 1521 1524 1526 1529 1530 1531 1532 1533
1482 1481 1484 1487 1488 1492 1495 1494 1499 1501 1505 1509 1505 1506 1486 1473 1467 1456 1452 1451 1452 1456 1460 1465 1470 1475 1479 1483 1487 1491 1495 1499 1503 1507 1512 1515 1518 1521 1524 1526 1527 1528 1529 1530
1475 1475 1476 1478 1480 1485 1489 1496 1501 1507 1509 1513 1503 1505 1489 1472 1459 1452 1448 1447 1448 1451 1456 1461 1467 1472 1476 1480 1484 1488 1492 1496 1500 1505 1509 1512 1515 1518 1521 1522 1524 1525 1526 1527
1476 1474 1472 1473 1480 1484 1488 1500 1511 1511 1515 1509 1497 1499 1483 1457 1451 1449 1446 1444 1445 1448 1452 1457 1462 1467 1472 1477 1481 1485 1489 1493 1498 1502 1506 1509 1513 1515 1517 1519 1521 1522 1523 1524
1477 1476 1469 1469 1472 1481 1485 1490 1504 1510 1510 1504 1496 1495 1471 1450 1447 1444 1443 1442 1442 1445 1449 1453 1458 1463 1468 1473 1478 1482 1486 1490 1495 1498 1502 1506 1509 1512 1514 1516 1518 1519 1520 1521
1464 1468 1461 1461 1463 1470 1482 1486 1485 1498 1500 1502 1495 1484 1466 1445 1442 1441 1441 1440 1440 1442 1446 1450 1456 1461 1466 1470 1475 1479 1484 1488 1492 1496 1499 1503 1506 1509 1511 1513 1515 1516 1517 1517
1452 1464 1459 1459 1462 1465 1469 1476 1490 1495 1501 1500 1491 1483 1470 1450 1442 1440 1439 1439 1439 1441 1444 1448 1453 1458 1463 1468 1473 1477 1481 1485 1489 1493 1496 1500 1503 1506 1508 1510 1511 1512 1513 1513
1445 1456 1461 1461 1461 1465 1472 1476 1477 1485 1490 1495 1492 1479 1453 1446 1442 1441 1438 1437 1437 1439 1442 1446 1451 1456 1461 1466 1470 1474 1478 1482 1486 1490 1493 1497 1499 1502 1504 1506 1507 1509 1509 1510
1439 1450 1460 1459 1454 1453 1456 1462 1469 1480 1486 1488 1487 1473 1442 1442 1440 1438 1436 1435 1436 1438 1441 1445 1449 1453 1458 1462 1466 1470 1474 1478 1482 1486 1490 1493 1496 1498 1500 1502 1504 1505 1505 1505
1434 1446 1459 1460 1460 1457 1456 1458 1459 1463 1473 1483 1483 1467 1440 1439 1437 1436 1435 1434 1435 1437 1439 1443 1446 1450 1453 1458 1462 1466 1470 1474 1479 1482 1486 1489 1491 1494 1496 1498 1499 1500 1501 1501
1423 1436 1441 1445 1443 1447 1452 1453 1455 1460 1466 1471 1468 1456 1443 1438 1436 1434 1434 1433 1434 1435 1437 1439 1442 1445 1449 1453 1457 1461 1465 1470 1474 1478 1481 1484 1487 1490 1492 1494 1495 1496 1496 1496
1420 1430 1433 1432 1433 1437 1439 1441 1446 1449 1448 1453 1450 1449 1439 1434 1433 1432 1432 1431 1432 1432 1433 1435 1437 1440 1443 1447 1451 1455 1460 1464 1469 1473 1476 1479 1483 1485 1487 1489 1490 1491 1491 1491
1417 1424 1430 1431 1431 1433 1435 1434 1436 1438 1439 1442 1442 1440 1430 1428 1429 1428 1427 1428 1428 1428 1429 1430 1432 1435 1437 1440 1444 1449 1453 1458 1463 1467 1471 1475 1478 1481 1483 1484 1485 1486 1486 1486
1415 1422 1429 1432 1429 1432 1434 1427 1430 1432 1431 1432 1433 1427 1423 1424 1424 1422 1422 1422 1423 1423 1425 1426 1427 1429 1432 1435 1438 1442 1447 1453 1458 1462 1466 1470 1473 1476 1478 1479 1480 1481 1481 1481
1409 1416 1424 1430 1432 1437 1417 1411 1414 1419 1419 1420 1418 1416 1416 1416 1415 1416 1417 1417 1417 1419 1420 1421 1423 1425 1427 1430 1434 1438 1443 1447 1452 1457 1461 1465 1468 1471 1473 1474 1475 1475 1475 1475
1402 1410 1423 1429 1429 1424 1416 1409 1410 1414 1413 1409 1411 1410 1409 1411 1413 1411 1411 1411 1413 1414 1416 1417 1419 1421 1424 1426 1430 1433 1438 1442 1447 1451 1456 1459 1463 1465 1467 1469 1470 1470 1469 1469
1402 1405 1416 1424 1423 1420 1407 1399 1399 1407 1410 1400 1401 1402 1404 1410 1416 1409 1406 1407 1408 1410 1412 1414 1416 1418 1420 1423 1426 1430 1433 1438 1442 1447 1451 1455 1458 1461 1462 1464 1464 1464 1464 1463
1402 1407 1411 1416 1415 1410 1398 1395 1399 1411 1403 1392 1392 1394 1399 1403 1403 1403 1403 1404 1406 1407 1409 1411 1413 1415 1418 1421 1424 1427 1431 1435 1439 1444 1448 1451 1454 1456 1458 1458 1459 1458 1457 1456
1388 1399 1405 1409 1411 1405 1390 1394 1395 1391 1387 1387 1388 1390 1393 1395 1398 1400 1401 1402 1404 1406 1408 1410 1412 1414 1416 1419 1422 1425 1429 1433 1437 1441 1444 1447 1450 1452 1453 1453 1453 1452 1451 1449
1376 1376 1382 1386 1385 1380 1380 1380 1380 1382 1384 1385 1386 1388 1391 1392 1394 1397 1399 1401 1402 1404 1406 1409 1411 1413 1415 1418 1422 1425 1428 1432 1435 1438 1441 1444 1446 1447 1447 1447 1447 1446 1444 1442
1372 1370 1375 1379 1377 1375 1375 1375 1377 1379 1381 1382 1384 1386 1388 1390 1392 1394 1396 1398 1401 1403 1405 1407 1409 1412 1415 1418 1421 1424 1427 1430 1433 1436 1438 1440 1441 1441 1442 1441 1441 1439 1437 1435
1362 1367 1370 1372 1370 1370 1370 1370 1372 1375 1377 1379 1381 1383 1385 1387 1389 1391 1394 1396 1399 1401 1404 1406 1409 1411 1414 1417 1420 1423 1426 1428 1430 1432 1434 1435 1436 1436 1436 1435 1434 1432 1431 1429
1356 1358 1362 1362 1361 1363 1362 1364 1367 1370 1372 1375 1377 1380 1382 1384 1386 1389 1391 1394 1397 1399 1402 1405 1408 1410 1413 1416 1419 1421 1424 1425 1427 1428 1429 1430 1430 1430 1429 1428 1426 1425 1423 1421